Flag for United Kingdom Weather past 2 weeks in Wakefield, England, United Kingdom

Now
43 °F

Passing clouds.


Feels Like: 34 °F
Forecast: 41 / 49 °F
Wind: 18 mph from West

Location: Leeds And Bradford

Current Time: Mar 29, 2015 at 9:06:53 AM

Latest Report: Mar 29, 2015 at 8:20 AM


Visibility: N/A

Pressure: 29.33 "Hg

Humidity: 81%

Dew point: 37 °F

Location of WakefieldLocation

Historic Weather in Wakefield — Graph

°F

Wakefield temperature yesterday

Maximum temperature yesterday: 55 °F (at 1:50 PM)
Minimum temperature yesterday: 39 °F (at 12:50 AM)
Average temperature yesterday: 47 °F

Past Weeks' High & Low Weather Summary

 TemperatureHumidityPressure
High55 °F (Mar 28, 1:50 PM)100% (Mar 15, 6:50 AM)30.57 "Hg (Mar 15, 6:50 AM)
Low30 °F (Mar 18, 6:20 AM)54% (Mar 22, 1:50 PM)29.33 "Hg (Mar 29, 7:50 AM)
Average40 °F86%30.12 "Hg
* Reported Mar 14 6:20 AM — Mar 29 7:50 AM, Wakefield, Weather by CustomWeather, © 2015

Note: Actual official high and low records may vary slightly from our data, if they occured in-between our weather recording intervals... More about our weather records

Advertising

Wakefield weather history for previous 24 hours

 ConditionsComfort  
Time TempWeatherWind HumidityBarometerVisibility
7:50 AM
Sun, Mar 29
43 °FLight rain. Scattered clouds.16 mph81%29.33 "HgN/A
7:20 AM43 °FLight rain. Passing clouds.21 mph81%29.36 "HgN/A
6:50 AM43 °FPassing clouds.18 mph100%29.36 "HgN/A
6:20 AM43 °FPassing clouds.16 mph100%29.39 "HgN/A
5:50 AM43 °FPassing clouds.17 mph100%29.42 "HgN/A
5:20 AM43 °FPassing clouds.21 mph100%29.42 "HgN/A
4:20 AM43 °FPassing clouds.23 mphN/A29.42 "HgN/A
3:50 AM43 °FPassing clouds.25 mph100%29.42 "HgN/A
3:20 AM43 °FPassing clouds.29 mph100%29.45 "HgN/A
2:50 AM45 °FPassing clouds.22 mph100%29.47 "HgN/A
2:20 AM45 °FPassing clouds.24 mph100%29.45 "HgN/A
12:50 AM45 °FPassing clouds.26 mph100%29.45 "HgN/A
12:20 AM45 °FPassing clouds.31 mphN/A29.45 "HgN/A
11:50 PM
Sat, Mar 28
46 °FSprinkles. Passing clouds.32 mph100%29.45 "Hg5 mi
11:20 PM46 °FLight rain. Passing clouds.21 mph100%29.45 "Hg6 mi
10:50 PM45 °FLight rain. Partly cloudy.16 mph100%29.45 "Hg6 mi
10:20 PM45 °FLight rain. Passing clouds.15 mph100%29.47 "Hg6 mi
9:50 PM45 °FSprinkles. Passing clouds.16 mph100%29.47 "HgN/A
9:20 PM45 °FSprinkles. Passing clouds.17 mph100%29.50 "HgN/A
8:50 PM45 °FSprinkles. Passing clouds.23 mph100%29.50 "HgN/A
8:20 PM45 °FPassing clouds.23 mph100%29.47 "HgN/A
7:50 PM45 °FSprinkles. Passing clouds.28 mph100%29.50 "HgN/A
7:20 PM45 °FSprinkles. Passing clouds.29 mphN/A29.47 "HgN/A
6:50 PM46 °FSprinkles. Passing clouds.26 mph87%29.50 "HgN/A
6:20 PM48 °FScattered clouds.26 mph82%29.47 "HgN/A
5:50 PM48 °FScattered clouds.25 mph87%29.47 "HgN/A
5:20 PM50 °FScattered clouds.28 mph82%29.47 "HgN/A
4:50 PM50 °FScattered clouds.26 mph82%29.47 "HgN/A
4:20 PM52 °FScattered clouds.24 mph82%29.47 "HgN/A
3:50 PM52 °FScattered clouds.29 mph82%29.50 "HgN/A
3:20 PM54 °FScattered clouds.28 mph82%29.50 "HgN/A
2:50 PM54 °FSprinkles. Scattered clouds.26 mph82%29.50 "HgN/A
2:20 PM54 °FSprinkles. Scattered clouds.26 mph88%29.50 "HgN/A
1:50 PM55 °FScattered clouds.25 mph82%29.50 "HgN/A
1:20 PM54 °FScattered clouds.21 mph88%29.50 "HgN/A
12:50 PM54 °FLight rain. Broken clouds.21 mph88%29.53 "HgN/A
12:20 PM54 °FBroken clouds.22 mph88%29.53 "HgN/A
11:50 AM50 °FLight rain. Broken clouds.18 mph100%29.56 "HgN/A
11:20 AM50 °FLight rain. Broken clouds.21 mph100%29.56 "HgN/A
10:50 AM52 °FLight rain. Broken clouds.20 mph94%29.56 "HgN/A
10:20 AM50 °FLight rain. Broken clouds.20 mph100%29.56 "HgN/A
9:50 AM50 °FLight rain. Broken clouds.18 mph100%29.59 "HgN/A
9:20 AM50 °FLight rain. Broken clouds.14 mph100%29.59 "HgN/A
Weather by CustomWeather, © 2015

See weather overviewHow to use our weather pages